Location: D�derode
(51.8092°N, 10.1065°E)
Time: 06:06:20
(UTC+00:00)

NOAA 6 - Pass Details

Date: 01 December 2020
Orbit: 773 x 786 km, 98.7° (Epoch: 23 January)

Event Time Altitude Azimuth Distance (km) Brightness Sun altitude
Rises 16:19:42 0° 169° (S) 3,255 7.4 -9.9°
Reaches altitude 10° 16:22:01 10° 171° (S) 2,329 6.7 -10.2°
Maximum altitude 16:27:09 72° 256° (WSW) 821 4.4 -10.9°
Drops below altitude 10° 16:32:18 10° 341° (NNW) 2,337 6.5 -11.7°
Sets 16:34:38 0° 344° (NNW) 3,268 7.2 -12.0°
